Weather History for Saranac Lake, NY

Change the Weather History Date:

Saturday, December 10, 2011

  Actual Average Record
Temperature  
Mean Temperature 21 °F 21 °F  
Max Temperature 32 °F 31 °F 60 °F (1966)
Min Temperature 9 °F 11 °F -15 °F (1976)
Degree Days  
Heating Degree Days 44 44  
Month to date heating degree days 347 420  
Since 1 July heating degree days 2144 2695  
Cooling Degree Days 0 0  
Month to date cooling degree days 0  
Year to date cooling degree days 114  
Moisture  
Dew Point 17 °F    
Average Humidity 71    
Maximum Humidity 88    
Minimum Humidity 54    
Precipitation  
Precipitation 0.02 in 0.08 in 0.57 in (2012)
Month to date precipitation 0.63 0.89  
Year to date precipitation 41.97 36.12  
Sea Level Pressure  
Sea Level Pressure 30.19 in    
Wind  
Wind Speed 6 mph (West)    
Max Wind Speed 17 mph    
Max Gust Speed 25 mph    
Visibility 6 miles    
Events Snow    
T = Trace of Precipitation, MM = Missing Value Source: NWS Daily Summary

Daily Weather History Graph

Daily Weather History Graph

Search for Another Location

Airport:

Trip Planner

Search our weather history database for the weather conditions in past years. The results will help you decide how hot, cold, wet, or windy it might be!

Date:

Astronomy

Dec. 10, 2011 Rise Set
Actual Time 7:21 AM EST 4:17 PM EST
Civil Twilight 6:48 AM EST 4:50 PM EST
Nautical Twilight 6:11 AM EST 5:27 PM EST
Astronomical Twilight 5:36 AM EST 6:02 PM EST
Moon 4:28 PM EST (12/10) 7:20 AM EST (12/10)
Length of Visible Light 10h 01m
Length of Day
8h 55m
Full, 100% of the Moon is Illuminated
Dec 10
Full
Dec 17
Last Quarter
Dec 24
New
Jan 1
First Quarter
Jan 9
Full

Hourly Weather History & Observations

Time (EST) Temp. Windchill Dew Point Humidity Pressure Visibility Wind Dir Wind Speed Gust Speed Precip Events Conditions
12:18 AM 30.2 °F 23.4 °F 26.6 °F 86% 30.06 in 2.5 mi Variable 6.9 mph - 0.00 in Snow Light Snow
12:27 AM 30.2 °F 24.3 °F 24.8 °F 80% 30.06 in 4.0 mi West 5.8 mph - 0.00 in Snow Light Snow
12:51 AM 30.0 °F 23.2 °F 25.0 °F 82% 30.12 in 5.0 mi WSW 6.9 mph - 0.00 in Snow Light Snow
1:14 AM 28.4 °F 22.2 °F 24.8 °F 86% 30.07 in 2.5 mi WSW 5.8 mph - 0.00 in Snow Light Snow
1:21 AM 28.4 °F 19.7 °F 24.8 °F 86% 30.07 in 2.5 mi West 9.2 mph - 0.00 in Snow Light Snow
1:34 AM 28.4 °F 19.7 °F 24.8 °F 86% 30.07 in 1.5 mi West 9.2 mph - 0.00 in Snow Light Snow
1:49 AM 28.4 °F 20.4 °F 24.8 °F 86% 30.08 in 1.5 mi WSW 8.1 mph - 0.00 in Snow Light Snow
1:51 AM 28.0 °F 20.8 °F 25.0 °F 88% 30.14 in 1.5 mi WSW 6.9 mph - 0.00 in Snow Light Snow
2:12 AM 28.4 °F 21.2 °F 24.8 °F 86% 30.08 in 2.5 mi Variable 6.9 mph - 0.00 in Snow Light Snow
2:16 AM 28.4 °F 21.2 °F 24.8 °F 86% 30.08 in 3.0 mi WSW 6.9 mph - 0.00 in Snow Light Snow
2:51 AM 28.0 °F 20.0 °F 24.1 °F 85% 30.15 in 3.0 mi WSW 8.1 mph - 0.00 in Snow Light Snow
3:06 AM 28.4 °F 21.2 °F 24.8 °F 86% 30.09 in 2.5 mi WSW 6.9 mph - 0.00 in Snow Light Snow
3:23 AM 26.6 °F 21.2 °F 24.8 °F 93% 30.08 in 2.5 mi WSW 4.6 mph - 0.00 in Snow Light Snow
3:43 AM 26.6 °F 21.2 °F 24.8 °F 93% 30.09 in 1.0 mi Variable 4.6 mph - 0.01 in Snow Light Snow
3:51 AM 25.0 °F 15.5 °F 21.9 °F 88% 30.16 in 1.2 mi NNW 9.2 mph 17.3 mph 0.01 in Snow Light Snow
3:59 AM 24.8 °F 16.9 °F 19.4 °F 80% 30.10 in 1.2 mi Variable 6.9 mph - 0.00 in Snow Light Snow
4:16 AM 23.0 °F 13.9 °F 19.4 °F 86% 30.11 in 1.8 mi NNW 8.1 mph - 0.00 in Snow Light Snow
4:43 AM 21.2 °F 16.4 °F 19.4 °F 93% 30.11 in 3.0 mi Variable 3.5 mph - 0.00 in Snow Light Snow
4:51 AM 21.9 °F 15.7 °F 19.0 °F 89% 30.18 in 6.0 mi NW 4.6 mph - 0.00 in   Overcast
5:29 AM 21.2 °F 13.6 °F 17.6 °F 86% 30.13 in 10.0 mi WNW 5.8 mph - N/A   Overcast
5:51 AM 21.9 °F 14.5 °F 17.1 °F 82% 30.21 in 6.0 mi WNW 5.8 mph - 0.00 in Snow Light Snow
6:31 AM 21.2 °F 16.4 °F 17.6 °F 86% 30.15 in 5.0 mi West 3.5 mph - 0.00 in Snow Light Snow
6:51 AM 21.9 °F 15.7 °F 17.1 °F 82% 30.22 in 4.0 mi Variable 4.6 mph - 0.00 in Snow Light Snow
7:51 AM 19.9 °F 11.1 °F 16.0 °F 85% 30.25 in 10.0 mi West 6.9 mph - 0.00 in   Mostly Cloudy
8:01 AM 21.2 °F 13.6 °F 15.8 °F 80% 30.18 in 10.0 mi WSW 5.8 mph - N/A   Scattered Clouds
8:21 AM 19.4 °F 8.6 °F 15.8 °F 86% 30.19 in 10.0 mi WSW 9.2 mph - N/A   Mostly Cloudy
8:47 AM 19.4 °F 14.3 °F 15.8 °F 86% 30.19 in 10.0 mi Variable 3.5 mph - N/A   Partly Cloudy
8:51 AM 21.0 °F 13.4 °F 17.1 °F 85% 30.26 in 10.0 mi WSW 5.8 mph - N/A   Scattered Clouds
9:51 AM 23.0 °F 15.8 °F 15.1 °F 72% 30.26 in 10.0 mi Variable 5.8 mph - N/A   Clear
10:51 AM 24.1 °F 14.4 °F 14.0 °F 65% 30.26 in 10.0 mi WSW 9.2 mph - N/A   Mostly Cloudy
11:07 AM 24.8 °F 16.1 °F 12.2 °F 59% 30.19 in 10.0 mi West 8.1 mph 17.3 mph 0.01 in   Mostly Cloudy
11:51 AM 25.0 °F 15.5 °F 10.0 °F 53% 30.25 in 10.0 mi West 9.2 mph - 0.01 in   Scattered Clouds
12:51 PM 25.0 °F 15.5 °F 10.9 °F 55% 30.25 in 10.0 mi West 9.2 mph - N/A   Overcast
1:51 PM 23.0 °F 12.4 °F 8.6 °F 54% 30.19 in 10.0 mi WNW 10.4 mph 18.4 mph N/A   Mostly Cloudy
2:22 PM 23.0 °F 13.9 °F 14.0 °F 68% 30.20 in 2.5 mi West 8.1 mph 18.4 mph 0.00 in Snow Light Snow
2:28 PM 23.0 °F 13.9 °F 14.0 °F 68% 30.20 in 4.0 mi West 8.1 mph - 0.00 in Snow Light Snow
2:51 PM 21.9 °F 13.4 °F 10.0 °F 60% 30.28 in 10.0 mi Variable 6.9 mph 18.4 mph 0.00 in   Partly Cloudy
3:51 PM 21.0 °F 12.4 °F 9.0 °F 60% 30.30 in 10.0 mi WSW 6.9 mph - N/A   Clear
4:51 PM 19.9 °F 11.1 °F 9.0 °F 62% 30.30 in 10.0 mi WSW 6.9 mph - N/A   Partly Cloudy
5:51 PM 18.0 °F 11.1 °F 10.0 °F 71% 30.32 in 10.0 mi WSW 4.6 mph - N/A   Clear
6:51 PM 18.0 °F - 10.0 °F 71% 30.33 in 10.0 mi Calm Calm - N/A   Clear
7:51 PM 17.1 °F 11.7 °F 10.0 °F 74% 30.36 in 10.0 mi West 3.5 mph - N/A   Scattered Clouds
8:51 PM 16.0 °F 7.4 °F 10.0 °F 77% 30.37 in 10.0 mi WSW 5.8 mph - N/A   Clear
9:51 PM 16.0 °F 8.8 °F 10.0 °F 77% 30.38 in 10.0 mi WSW 4.6 mph - N/A   Clear
10:51 PM 15.1 °F 6.4 °F 10.0 °F 80% 30.39 in 10.0 mi WSW 5.8 mph - N/A   Clear
11:51 PM 12.0 °F - 8.1 °F 84% 30.40 in 10.0 mi Calm Calm - N/A   Clear